Regional Weather Roundup
Issued by NWS

Home | Current Version | Previous Version | Graphics & Text | Print | Product List | Glossary On
Versions: 1 2 3 4 5 6 7 8 9 10 11 12 13 14 15 16 17 18 19 20 21 22 23 24 25 26 27 28 29 30 31 32 33 34 35 36 37 38 39 40 41 42 43 44 45 46 47 48 49 50
000
ASUS43 KDTX 251401
RWRMI
MICHIGAN HOURLY REGIONAL WEATHER ROUNDUP
NATIONAL WEATHER SERVICE DETROIT/PONTIAC MI
1000 AM EDT THU AUG 25 2016

NOTE: "FAIR" INDICATES FEW OR NO CLOUDS BELOW 12,000 FEET WITH NO
SIGNIFICANT WEATHER AND/OR OBSTRUCTION TO VISIBILITY.

MIZ047>049-052>055-059>063-066>070-074>076-081>083-251500-
SOUTHEAST LOWER MICHIGAN

CITY           SKY/WX    TMP DP  RH WIND       PRES   REMARKS
ADRIAN         CLOUDY    73  72  96 SW6       30.00F
ALMA           CLOUDY    73  73  99 SW10      29.95F
ANN ARBOR      CLOUDY    76  73  91 S5        29.99F
BAD AXE        CLOUDY    72  71  98 SW5       29.98R
CARO           RAIN      72  71  98 CALM      29.95F
DETROIT CITY   CLOUDY    78  74  87 W3        29.97F
DETROIT        CLOUDY    77  73  87 SW8       29.98F
FLINT          CLOUDY    77  72  84 W5        29.97F
GROSSE ILE     CLOUDY    75  71  87 S3        29.97F
HILLSDALE      CLOUDY    76  70  82 SW5       30.00F
HOWELL         CLOUDY    74  72  96 SW5       29.99S

CITY           SKY/WX    TMP DP  RH WIND       PRES   REMARKS
JACKSON        CLOUDY    75  73  93 SW9       29.99F
LAMBERTVILLE   CLOUDY    77  72  85 SW5       30.00S
LANSING        MOSUNNY   75  69  81 SW7       29.98F
LAPEER         LGT RAIN  74  73  94 CALM      29.98F
MASON          CLOUDY    75  71  88 CALM      29.98F
MONROE         MOSUNNY   78  74  88 SW7       29.99R
PONTIAC        CLOUDY    75  71  87 W6        29.97F
PORT HURON     PTSUNNY   75  73  94 CALM      29.98S
TRI CITIES     CLOUDY    73  73 100 SW6       29.96F FOG
MIDLAND        CLOUDY    73  73  97 W6        29.95F
TROY           CLOUDY    77  72  84 CALM      29.99F
SAGINAW HB     CLOUDY    72  70  94 SW5       29.95F
$$
MIZ043>046-050>051-056>058-064>065-071>073-077>080-251500-
SOUTHWEST LOWER MICHIGAN

CITY           SKY/WX    TMP DP  RH WIND       PRES   REMARKS
BATTLE CREEK   CLOUDY    71  70  96 SW10      29.99S
BENTON HARBOR  CLOUDY    75  70  84 SW13      29.98S
BIG RAPIDS     CLOUDY    73  71  96 CALM      29.96F
COLDWATER      MOSUNNY   74  71  89 SW7       30.01R
FREMONT        PTSUNNY   71  71  99 NW3       29.97S
HOLLAND        CLOUDY    76  72  87 SW6       29.97F
GRAND RAPIDS   CLOUDY    74  71  91 SW12      29.97S
IONIA          FAIR      74  71  88 SW8       29.95F
KALAMAZOO      CLOUDY    73  69  87 SW10      29.98S
LUDINGTON      CLOUDY    70  68  92 NW5       29.96S
MARSHALL       MOSUNNY   73  72  94 SW8       29.99S
MOUNT PLEASANT CLOUDY    73  72  96 W3        29.96R
MUSKEGON       CLOUDY    73  71  93 N3        29.96F
SOUTH HAVEN    CLOUDY    75  73  93 W8G16     29.98S
$$
MIZ016>042-251500-
NORTHERN LOWER MICHIGAN

CITY           SKY/WX    TMP DP  RH WIND       PRES   REMARKS
BEAVER ISLAND  CLOUDY    70  64  82 W5        29.93S
BELLAIRE       CLOUDY    72  68  86 SW3       29.94S
CADILLAC       CLOUDY    70  66  88 W5        29.97F
CHARLEVOIX     CLOUDY    71  66  84 W7        29.96S
FRANKFORT      CLOUDY    71  65  80 NW5       29.95S
GAYLORD        CLOUDY    71  64  78 W6        29.96S
GRAYLING       CLOUDY    71  68  88 W3        29.97S
HARBOR SPRINGS CLOUDY    71  65  83 W5        29.93S
HOUGHTON LAKE  CLOUDY    70  67  90 W5        29.98S
MANISTEE       CLOUDY    71  67  87 W8        29.96S
OSCODA         CLOUDY    73  70  92 W7        29.94R
PELLSTON       CLOUDY    70  65  84 W6        29.93R
ROGERS CITY    MOSUNNY   72  67  84 SW7       29.93R
TRAVERSE CITY  CLOUDY    73  66  78 W7        29.93S
$$
MIZ007>008-015-251500-
EASTERN UPPER MICHIGAN

CITY           SKY/WX    TMP DP  RH WIND       PRES   REMARKS
KINROSS        CLOUDY    66  64  93 VRB3      29.91R
MACKINAC ISLAN CLOUDY    69  68  98 W8        29.91S
NEWBERRY       CLOUDY    68  64  85 W10       29.91S
S. S. MARIE    CLOUDY    69  64  84 W7        29.89R
MUNISING         N/A     68  58  70 NW8       29.91
$$
MIZ004>006-011>014-085-251500-
CENTRAL UPPER MICHIGAN

CITY           SKY/WX    TMP DP  RH WIND       PRES   REMARKS
MANISTIQUE     CLOUDY    67  62  82 NW3       29.91S
ESCANABA       CLOUDY    67  60  78 NW7       29.94R
MENOMINEE      CLOUDY   N/A N/A N/A VRB5      29.97S
SAWYER-GWINN   SUNNY     64  57  77 W10       29.94S
$$
MIZ001>003-009>011-084-251500-
WESTERN UPPER MICHIGAN

CITY           SKY/WX    TMP DP  RH WIND       PRES   REMARKS
IRON MOUNTAIN  CLOUDY    66  57  72 W7        29.95S
HOUGHTON       SUNNY     69  58  67 W13       29.90F
COPPER HARBOR    N/A     70  57  63 NW8G22    29.87F
IRONWOOD       SUNNY     66  56  70 SW9       29.96F
$$

ABBREVIATIONS USED IN REMARKS
   TC - TEMPERATURE IN CELSIUS
  WCI - WIND CHILL INDEX
   HX - HEAT INDEX
  VSB - VISIBILITY




USA.gov is the U.S. government's official web portal to all federal, state and local government web resources and services.